Location: Newark
(41.8922°N, 9.0050°E)
Time: 02:01:43
(UTC+00:00)

Envisat - Pass Details

Date: 28 January 2020
Orbit: 764 x 766 km, 98.1° (Epoch: 25 February)

Event Time Altitude Azimuth Distance (km) Brightness Sun altitude
Rises 17:15:03 0° 168° (SSE) 3,218 6.3 -8.1°
Reaches altitude 10° 17:17:20 10° 169° (S) 2,296 5.6 -8.5°
Maximum altitude 17:22:25 82° 257° (WSW) 779 3.1 -9.4°
Drops below altitude 10° 17:27:31 10° 345° (NNW) 2,312 5.5 -10.4°
Sets 17:29:50 0° 347° (NNW) 3,242 6.2 -10.8°
